Wind_Speed
49 49 48 47 47 47 47 47 47 47 45 45 46 47 47 47 48 47 46 45 44 44 44 43 43 43 43 44 45 46 47 47 48 49 49 49 47 45
49 49 49 49 48 48 48 49 49 48 47 46 47 47 48 48 48 47 46 44 44 44 44 45 45 45 45 46 47 48 48 49 49 49 48 47 45 44
51 51 51 50 50 50 49 50 50 49 49 48 48 48 49 49 47 46 46 45 45 46 46 46 46 46 46 47 47 48 49 50 49 48 47 45 45 44
52 52 52 52 52 51 51 51 51 50 50 49 49 49 49 48 48 47 46 46 46 47 47 47 47 47 48 48 49 50 50 49 48 47 46 45 44 44
53 53 53 53 53 53 53 52 52 52 53 52 50 49 48 47 47 47 47 47 47 47 48 48 48 47 48 49 49 50 50 48 47 46 46 46 46 46
53 52 52 52 52 52 52 52 52 53 54 54 52 50 48 47 47 48 48 48 48 49 49 48 48 48 49 50 50 50 48 47 47 47 47 47 46 46
51 51 52 52 52 52 52 52 52 52 52 53 52 50 48 47 48 48 48 49 49 49 49 49 49 49 49 50 50 49 48 47 46 46 46 46 46 45
51 52 51 52 52 52 52 51 52 52 51 51 50 49 49 48 48 49 49 49 48 48 49 49 49 49 49 49 49 48 47 46 46 46 46 46 46 46
48 49 49 49 49 50 50 51 52 52 51 50 50 49 49 48 48 48 48 48 47 47 47 48 48 48 47 48 48 46 45 45 45 45 46 46 46 45
47 47 47 47 49 50 49 50 50 50 49 50 50 49 49 49 48 47 47 47 47 47 48 47 47 47 46 46 46 45 45 46 46 46 45 45 45 44
46 45 46 47 48 49 49 49 48 47 48 49 49 49 48 48 47 47 47 47 47 47 47 46 46 46 45 45 45 45 45 45 45 45 45 44 44 43
46 46 46 46 47 47 47 47 47 46 46 46 47 47 47 47 48 48 47 47 46 46 46 46 46 45 44 44 44 44 45 45 45 45 44 43 43 42
45 45 45 44 44 44 44 44 45 45 45 45 45 45 46 47 47 46 46 46 46 46 46 45 44 43 43 42 41 42 43 43 43 43 43 41 41 41
43 43 42 42 42 42 42 43 44 44 44 44 44 44 45 45 45 44 44 44 45 44 44 43 42 41 41 40 39 40 41 41 41 40 40 39 39 39
41 41 41 41 40 41 41 42 42 42 43 43 43 43 43 43 43 42 42 42 42 42 42 41 41 41 40 39 38 38 38 38 38 38 38 37 37 38
41 41 40 40 40 40 40 41 41 41 42 42 42 42 42 42 41 41 40 40 41 41 41 41 40 40 39 39 38 37 38 37 36 36 36 36 36 36
40 39 39 39 39 40 40 40 40 41 41 41 41 41 41 41 40 40 39 40 40 39 39 39 39 39 38 37 37 37 36 36 36 35 35 34 34 34
39 38 39 39 39 40 40 40 40 41 41 40 40 39 39 39 38 38 38 39 39 38 37 37 36 36 36 36 36 35 35 34 34 33 33 33 33 33
38 37 38 39 40 40 40 40 40 39 39 39 37 37 37 37 37 37 37 37 37 36 35 35 35 34 34 33 33 34 33 32 32 32 31 31 31 31
37 37 37 38 38 39 39 39 38 37 37 36 36 36 36 35 35 35 35 34 33 34 34 35 34 33 33 32 32 32 32 31 31 30 30 30 29 28
36 36 36 36 36 36 36 36 36 36 35 34 34 34 35 34 34 33 33 32 32 33 32 32 32 32 32 31 31 30 30 30 29 29 28 27 26 25
35 35 35 35 35 34 34 34 34 34 33 33 32 32 32 32 31 31 30 30 30 30 30 30 30 30 30 29 28 27 27 27 26 26 25 25 24 22
35 34 34 34 33 33 33 33 33 32 32 31 31 31 30 30 29 29 28 28 29 28 28 27 27 27 27 26 25 25 24 23 23 22 22 22 21 21
Wind_Direction
274 274 275 276 276 276 278 280 282 282 281 282 283 284 285 285 286 286 286 289 289 290 290 291 291 292 293 294 295 296 297 297 297 298 298 297 296 295
273 274 275 275 276 276 278 280 282 282 282 282 283 284 285 284 285 284 284 285 287 288 288 289 291 292 293 293 295 296 297 298 298 297 297 297 296 296
275 276 276 277 276 277 279 279 280 281 282 283 284 284 284 283 283 283 283 283 284 286 288 289 290 291 292 293 294 296 297 297 298 297 297 297 296 295
275 276 277 277 277 277 277 279 280 280 282 282 283 284 283 281 282 282 282 283 284 285 287 288 288 290 291 292 294 295 296 297 297 297 297 295 295 295
276 276 277 277 277 277 277 278 279 279 280 281 281 281 280 279 279 280 280 281 283 284 285 287 288 289 291 292 294 295 297 296 296 296 296 295 295 295
276 276 277 277 277 278 278 278 279 280 280 280 279 279 278 277 278 278 278 280 281 282 284 286 287 289 291 292 294 295 296 295 295 294 294 295 295 294
276 276 277 276 278 278 279 280 281 281 281 280 280 278 277 277 277 278 278 280 282 282 283 285 287 289 291 292 293 295 294 294 294 294 294 295 295 295
276 276 277 277 277 278 280 280 280 280 280 280 279 279 279 278 278 278 279 280 282 282 284 286 287 290 291 292 292 293 293 294 294 295 295 295 295 295
277 277 277 277 278 279 279 279 280 280 280 279 280 280 279 279 279 279 280 281 282 284 285 287 289 290 291 292 293 293 294 295 296 296 296 296 295 294
279 278 279 278 279 279 280 281 280 279 278 278 278 279 279 279 280 279 279 280 283 284 285 287 289 290 291 292 293 294 294 295 296 297 297 296 296 296
280 280 280 279 279 279 280 280 279 278 277 277 277 279 279 279 280 280 280 281 282 283 284 285 287 289 289 289 291 293 294 296 296 297 297 297 296 296
281 281 281 280 280 280 280 279 279 279 279 278 278 279 279 279 279 280 280 281 283 283 284 285 286 287 287 288 290 291 294 295 295 295 296 296 296 295
280 281 280 280 281 280 280 280 280 280 280 280 279 279 279 279 279 279 280 281 283 284 285 286 286 286 289 290 290 291 293 294 294 295 295 296 296 297
281 281 280 279 280 280 281 281 281 280 280 280 279 280 280 280 280 279 280 281 284 285 286 286 286 286 289 291 290 291 293 294 294 295 296 297 298 300
280 281 280 280 280 281 282 282 282 280 280 280 280 280 280 279 279 278 279 281 284 285 286 286 287 287 289 290 290 291 292 293 294 295 296 297 298 300
280 280 279 279 280 281 282 282 281 281 280 280 280 280 279 280 280 279 279 281 283 285 286 286 286 287 289 290 292 293 294 294 294 295 296 298 298 299
281 279 279 279 280 281 281 282 282 282 281 280 280 280 280 280 281 280 281 282 283 284 284 284 286 288 288 290 292 293 294 294 294 296 296 297 298 300
282 280 280 280 281 281 280 282 283 283 281 280 280 280 280 281 281 281 282 283 282 282 282 283 285 287 288 289 291 292 293 293 293 295 296 297 299 302
282 281 281 281 281 281 282 283 283 283 282 281 280 281 281 281 281 282 283 283 281 280 282 284 286 288 288 288 290 291 293 293 293 295 296 298 302 303
283 283 283 283 283 283 283 283 282 282 282 281 280 281 281 281 282 282 282 281 281 281 283 284 286 287 288 289 290 292 293 293 294 295 297 300 303 304
283 283 283 283 283 283 283 283 282 282 282 282 281 281 281 282 282 281 281 281 281 283 284 285 286 287 289 290 292 292 292 293 294 295 298 301 303 305
284 284 284 283 283 283 283 283 283 282 282 282 282 281 280 281 282 282 281 281 283 284 285 286 286 288 290 292 293 292 293 294 295 297 299 302 304 305
285 285 284 284 283 282 283 283 283 282 281 280 280 280 279 280 282 283 282 283 283 285 285 284 285 287 290 292 292 292 293 294 295 297 300 302 304 307
Height
5729 5729 5728 5728 5727 5726 5725 5723 5723 5723 5723 5720 5718 5716 5714 5712 5710 5708 5705 5702 5699 5697 5694 5692 5689 5686 5683 5679 5676 5672 5668 5664 5660 5655 5650 5645 5641 5637
5717 5716 5716 5715 5714 5713 5712 5711 5710 5709 5709 5708 5706 5704 5701 5699 5697 5695 5693 5690 5687 5685 5683 5680 5678 5675 5671 5668 5664 5661 5656 5652 5647 5643 5638 5634 5630 5626
5704 5704 5703 5702 5702 5701 5699 5698 5697 5696 5695 5695 5692 5690 5688 5686 5684 5683 5681 5678 5676 5674 5671 5669 5666 5663 5660 5656 5653 5649 5645 5640 5635 5630 5626 5622 5618 5615
5691 5690 5690 5689 5689 5688 5686 5685 5684 5682 5681 5681 5679 5677 5675 5673 5672 5670 5668 5666 5664 5662 5659 5657 5654 5651 5647 5644 5640 5636 5632 5627 5623 5618 5615 5611 5607 5603
5678 5677 5676 5675 5675 5674 5673 5672 5670 5669 5667 5666 5665 5663 5662 5660 5659 5657 5656 5654 5652 5649 5647 5644 5641 5638 5635 5631 5627 5623 5619 5615 5611 5607 5602 5599 5595 5591
5664 5664 5663 5662 5661 5660 5659 5658 5656 5655 5653 5652 5651 5649 5648 5646 5645 5644 5643 5641 5639 5637 5634 5632 5629 5625 5622 5618 5614 5610 5606 5602 5598 5594 5590 5586 5582 5578
5650 5650 5649 5648 5647 5646 5645 5644 5642 5641 5639 5637 5636 5635 5634 5633 5632 5630 5629 5628 5626 5624 5622 5619 5616 5613 5609 5604 5601 5597 5593 5589 5586 5582 5578 5574 5570 5566
5637 5635 5635 5634 5633 5632 5631 5630 5628 5627 5625 5624 5622 5621 5620 5619 5618 5616 5615 5615 5614 5612 5609 5607 5603 5600 5595 5592 5588 5584 5580 5577 5573 5569 5565 5561 5558 5554
5624 5622 5622 5621 5619 5618 5617 5616 5614 5612 5611 5609 5608 5607 5606 5605 5604 5603 5601 5600 5599 5596 5594 5593 5589 5586 5582 5578 5574 5571 5567 5564 5560 5556 5553 5549 5545 5541
5610 5609 5608 5607 5606 5605 5603 5602 5600 5598 5597 5596 5595 5593 5592 5591 5589 5589 5587 5586 5585 5582 5579 5579 5576 5573 5569 5565 5561 5558 5555 5551 5548 5544 5540 5536 5533 5529
5597 5596 5595 5593 5592 5591 5590 5589 5587 5585 5583 5581 5580 5579 5578 5576 5575 5574 5573 5572 5571 5570 5566 5565 5563 5560 5557 5553 5549 5545 5542 5539 5535 5531 5528 5524 5520 5516
5584 5583 5581 5580 5578 5577 5576 5574 5573 5572 5570 5569 5567 5566 5564 5563 5561 5560 5559 5558 5557 5556 5554 5552 5549 5547 5546 5543 5538 5534 5530 5526 5523 5519 5515 5511 5508 5504
5571 5570 5568 5567 5565 5563 5562 5561 5559 5558 5557 5556 5555 5553 5552 5550 5548 5547 5545 5544 5543 5542 5540 5538 5536 5533 5531 5530 5527 5522 5519 5515 5512 5508 5503 5500 5496 5492
5559 5558 5556 5554 5552 5551 5549 5548 5546 5545 5544 5543 5542 5541 5539 5538 5536 5534 5533 5531 5530 5528 5527 5525 5523 5521 5519 5517 5515 5512 5508 5504 5500 5497 5493 5489 5485 5481
5546 5545 5544 5542 5541 5539 5537 5536 5534 5533 5532 5531 5530 5528 5527 5525 5524 5522 5521 5520 5518 5516 5514 5512 5511 5509 5507 5505 5503 5500 5497 5494 5490 5486 5483 5479 5475 5471
5534 5533 5532 5530 5529 5527 5526 5524 5522 5520 5519 5518 5517 5516 5514 5513 5512 5511 5510 5509 5508 5505 5503 5501 5499 5497 5496 5494 5491 5489 5486 5483 5480 5476 5473 5469 5465 5461
5523 5521 5520 5519 5518 5516 5514 5512 5510 5509 5507 5506 5505 5504 5502 5501 5500 5499 5498 5497 5496 5494 5493 5491 5488 5486 5484 5483 5481 5478 5475 5472 5469 5466 5463 5460 5456 5452
5511 5510 5509 5508 5506 5505 5503 5501 5499 5497 5495 5494 5493 5492 5491 5490 5489 5488 5487 5486 5484 5483 5482 5480 5479 5477 5475 5472 5470 5468 5465 5462 5460 5457 5454 5451 5448 5444
5500 5499 5498 5496 5494 5493 5491 5489 5488 5486 5484 5483 5482 5480 5479 5479 5478 5477 5476 5475 5474 5473 5471 5470 5468 5466 5465 5464 5461 5457 5455 5453 5450 5448 5445 5442 5439 5435
5489 5488 5486 5485 5483 5481 5479 5478 5476 5475 5473 5472 5471 5470 5469 5468 5467 5466 5465 5464 5463 5462 5461 5459 5458 5456 5455 5453 5452 5449 5445 5443 5441 5439 5437 5434 5431 5427
5478 5477 5475 5474 5472 5470 5468 5467 5465 5464 5463 5461 5460 5460 5459 5458 5457 5456 5456 5455 5454 5453 5451 5450 5448 5447 5445 5443 5442 5440 5438 5435 5432 5431 5428 5426 5424 5421
5467 5466 5464 5463 5461 5460 5458 5456 5455 5454 5453 5452 5451 5450 5449 5449 5448 5447 5446 5445 5444 5443 5442 5441 5439 5438 5436 5435 5433 5432 5430 5428 5425 5423 5421 5419 5416 5414
5457 5455 5453 5452 5450 5449 5448 5446 5445 5444 5443 5442 5441 5441 5440 5440 5439 5438 5437 5437 5436 5434 5433 5432 5431 5430 5428 5427 5426 5424 5423 5421 5419 5417 5415 5412 5410 5408